#timestamp,LO_Frequency,Hit,StdDev 
1531051215.2,286046998.3,Y
1531051235.0,286047000.7,P
1531051235.9,286047000.7,N
1531051255.8,286046998.2,N
1531051275.6,286046998.8,N
1531051295.4,286046999.6,N
1531051315.3,286046997.0,Y
1531051335.1,286046999.3,P
1531051355.9,286046997.0,P
1531051375.7,286046997.6,N
1531051395.5,286046997.8,N
1531051415.4,286046999.2,N
1531051435.2,286046999.2,N
1531051455.0,286046999.1,N
1531051455.9,286046999.1,N
1531051475.8,286046997.0,Y
1531051495.6,286047001.1,P
1531051515.5,286047000.8,N
1531051535.3,286047002.3,N
1531051555.1,286047001.4,N
1531051575.9,286047001.9,N
1531051595.7,286047002.4,N
1531051615.5,286046999.9,N
1531051635.4,286047001.0,N
1531051655.2,286047001.1,N
1531051675.1,286047002.4,N
1531051676.0,286047011.9,Y
1531051695.8,286047000.3,P
1531051715.6,286047001.0,N
1531051735.5,286047002.8,P
1531051755.3,286047000.2,N
1531051775.2,286046999.8,N
1531051795.9,286047001.3,N
1531051815.7,286047002.6,N
1531051835.6,286047000.5,N
1531051855.4,286047000.3,N
1531051875.2,286047001.1,N
1531051895.1,286046998.2,N
1531051896.0,286046998.2,N
1531051915.8,286046999.5,N
1531051935.7,286046999.2,N
1531051955.5,286047001.1,N
1531051975.3,286047000.2,N
1531051995.2,286047000.4,N
1531052015.9,286046999.7,N
1531052035.7,286047002.7,N
1531052055.6,286047001.6,N
1531052075.4,286047003.0,N
1531052095.3,286047005.8,Y
1531052115.1,286047005.2,P
1531052116.0,286047005.2,N
1531052135.8,286047003.3,N
1531052155.7,286047004.2,N
1531052175.5,286047004.1,N
1531052195.3,286047001.9,N
1531052215.2,286047003.8,N
1531052235.0,286047004.4,N
1531052235.9,286047004.4,Y
1531052255.8,286046998.2,P
1531052275.6,286047001.0,N
1531052295.4,286046998.1,N
1531052315.3,286046999.1,N
1531052335.1,286046998.7,N
1531052355.9,286047001.1,N
1531052375.7,286047001.1,N
1531052395.5,286047000.5,N
1531052415.4,286047000.7,N
1531052435.2,286047000.4,N
1531052455.0,286047001.1,N
1531052455.9,286047001.1,N
1531052475.8,286047001.0,N
1531052495.6,286046998.3,N
1531052515.5,286046998.7,N
1531052535.3,286046998.4,N
1531052555.1,286046998.9,N
1531052575.9,286046999.4,N
1531052595.7,286046999.0,N
1531052615.5,286046999.2,N
1531052635.4,286046998.4,N
1531052655.2,286046999.3,N
1531052675.1,286046999.6,N
1531052676.0,286046999.6,N
1531052695.8,286046996.7,N
1531052715.6,286046996.7,N
1531052735.5,286046999.6,N
1531052755.3,286046999.6,N
1531052775.2,286046997.0,N
1531052795.9,286046997.7,N
1531052815.7,286046998.9,N
1531052835.6,286046999.2,N
1531052855.4,286046999.0,N
1531052875.2,286046999.5,N
1531052895.1,286046999.2,N
1531052896.0,286046999.2,N
1531052915.8,286046996.9,N
1531052935.7,286046997.4,N
1531052955.5,286046997.6,N
1531052975.3,286046995.0,Y
1531052995.2,286046996.7,P
1531053015.0,286046999.1,N
1531053015.9,286046999.1,N
1531053035.8,286046998.3,N
1531053055.6,286046998.3,N
1531053075.4,286047001.2,N
1531053095.3,286046998.5,N
1531053115.1,286046998.7,N
1531053135.8,286046999.3,N
1531053155.7,286046998.1,N
1531053175.5,286046998.1,N
1531053195.4,286047001.0,N
1531053215.2,286047001.1,N
1531053235.0,286047001.0,N
1531053235.9,286047001.0,N
1531053255.8,286047000.5,N
1531053275.6,286047000.4,N
1531053295.4,286047000.5,N
1531053315.3,286047000.5,N
1531053335.1,286047000.0,N
1531053355.9,286047000.5,N
1531053375.7,286047000.7,N
1531053395.5,286046998.4,N
1531053415.4,286046999.4,N
1531053435.2,286046996.5,N
1531053455.0,286046999.0,N
1531053455.9,286046999.0,N
1531053475.8,286046998.6,N
1531053495.6,286046998.4,N
1531053515.5,286046998.7,N
1531053535.3,286046998.8,N
1531053555.1,286046999.3,N
1531053575.9,286046998.3,N
1531053595.7,286046998.4,N
1531053615.5,286046996.9,N
1531053635.4,286046997.0,N
1531053655.2,286046996.5,N
1531053675.1,286046997.4,N
1531053676.0,286046997.4,N
1531053695.8,286046998.3,N
1531053715.6,286046998.7,N
1531053735.5,286046996.8,N
1531053755.3,286046997.7,N
1531053775.2,286046997.0,N
1531053795.9,286046997.1,N
1531053815.7,286046996.7,N
1531053835.6,286046996.7,N
1531053855.4,286046997.4,N
1531053875.3,286046997.0,N
1531053895.1,286046996.9,N
1531053896.0,286046996.9,N
1531053915.8,286046999.3,N
1531053935.7,286046996.6,Y
1531053955.5,286047000.9,P
1531053975.3,286047000.9,N
1531053995.2,286047002.8,N
1531054015.0,286047000.1,N
1531054015.9,286047000.1,N
1531054035.8,286047000.3,N
1531054055.6,286047001.0,N
1531054075.4,286047000.7,N
1531054095.3,286046998.4,N
1531054115.1,286046998.6,N
1531054135.9,286046998.8,N
1531054155.7,286046999.6,N
1531054175.5,286046997.5,N
1531054195.4,286046997.1,N
1531054215.2,286046999.2,N
1531054235.0,286046999.6,N
1531054235.9,286046999.6,N
1531054255.8,286046999.2,N
1531054275.6,286046999.4,N
1531054295.5,286046999.3,N
1531054315.3,286047001.1,N
1531054335.1,286047001.0,N
1531054355.9,286047001.0,N
1531054375.7,286047000.0,N
1531054395.5,286046999.8,N
1531054415.4,286047000.2,N
1531054435.2,286047000.1,N
1531054455.1,286047001.9,N
1531054456.0,286047001.9,N
1531054475.8,286047002.8,N
1531054495.6,286047000.9,N
1531054515.5,286046998.7,N
1531054535.3,286046998.6,N
1531054555.1,286046999.4,N
1531054575.9,286046999.4,N
1531054595.7,286046998.9,N
1531054615.6,286046998.9,N
1531054635.4,286046998.4,N
1531054655.2,286046998.5,N
1531054675.1,286046998.6,N
1531054676.0,286046998.6,N
1531054695.8,286046998.5,N
1531054715.6,286046999.6,N
1531054735.5,286046998.8,N
1531054755.3,286047000.6,N
1531054775.2,286047002.5,N
1531054795.9,286047004.2,Y
